Miscellaneous Local Product
Issued by NWS Hastings, NE

Home | Current Version | Previous Version | Graphics & Text | Print | Product List | Glossary On
Versions: 1 2 3 4 5 6 7 8 9 10 11 12 13 14 15 16 17 18 19 20 21 22 23 24 25 26 27 28 29 30 31 32 33 34 35 36 37 38 39 40 41 42 43 44 45 46 47 48 49 50
000
AXUS43 KGID 291902
MISGRI

GID CWA HOURLY WEATHER ROUNDUP
NATIONAL WEATHER SERVICE HASTINGS NE
100 PM CST THU JAN 29 2015

NOTE: "FAIR" INDICATES FEW OR NO CLOUDS BELOW 12,000 FEET WITH NO
SIGNIFICANT WEATHER AND/OR OBSTRUCTIONS TO VISIBILITY.

...SOUTH CENTRAL NEBRASKA...

CITY           SKY/WX    TMP DP  RH WIND       PRES   REMARKS
GRAND ISLAND   MOSUNNY   43  25  49 N23G31    30.46F
HASTINGS       FAIR      43  23  45 N21       30.45F
KEARNEY        MOSUNNY   43  23  45 N15G23    30.46F
ORD            SUNNY     42  22  44 N20G28    30.44F
YORK           CLOUDY    39  27  60 N16G26    30.44S WCI  30
AURORA         CLOUDY    41  25  53 N23G30    30.45F
LEXINGTON      SUNNY     43  25  49 NW15G21   30.48F
HOLDREGE       SUNNY     42  24  49 N16G22    30.47S
HEBRON         CLOUDY    42  23  46 N17G26    30.45S

...NEBRASKA PANHANDLE...

CITY           SKY/WX    TMP DP  RH WIND       PRES   REMARKS
CHADRON        SUNNY     42  17  36 N8        30.48F
ALLIANCE       SUNNY     41  20  43 N9        30.46F
SCOTTSBLUFF    SUNNY     45  20  36 W8        30.48F
SIDNEY         SUNNY     43  12  28 N12       30.48F

...WESTERN AND NORTH CENTRAL NEBRASKA...

CITY           SKY/WX    TMP DP  RH WIND       PRES   REMARKS
VALENTINE      SUNNY     41  22  46 NW15      30.46F
AINSWORTH      SUNNY     39  23  52 NW14G20   30.45F WCI  31
ONEILL         SUNNY     42  26  54 NW16G25   30.45S
BROKEN BOW     SUNNY     42  24  49 NW16      30.45F
IMPERIAL       SUNNY     41  25  53 NW10      30.49F
NORTH PLATTE   SUNNY     42  23  46 N10       30.48F
MCCOOK         SUNNY     44  23  43 NW18      30.49F

...EASTERN NEBRASKA...

CITY           SKY/WX    TMP DP  RH WIND       PRES   REMARKS
NORFOLK        CLOUDY    38  26  62 N21       30.42S WCI  28
SO SIOUX CITY  CLOUDY    36  25  64 NW22G35   30.41F WCI  25
TEKAMAH        CLOUDY    38  25  59 N25       30.42S WCI  27
COLUMBUS       CLOUDY    39  23  52 N22G30    30.45S WCI  29
ALBION         PTSUNNY   40  25  54 N21G28    30.43F WCI  31
OMAHA EPPLEY   CLOUDY    39  26  59 N23G33    30.39S WCI  28
OFFUTT AFB     CLOUDY    39  25  57 NW18      30.39F WCI  30
MILLARD        CLOUDY    39  26  58 N17G31    30.41S WCI  30
LINCOLN        CLOUDY    40  26  57 N25G33    30.44R WCI  29
NEBRASKA CITY  CLOUDY    39  21  48 N22G36    30.40R WCI  29
BEATRICE       CLOUDY    40  28  60 N23G29    30.43S WCI  30
FALLS CITY     CLOUDY    40  25  55 N17G35    30.39R WCI  31

...NORTHERN KANSAS...

CITY           SKY/WX    TMP DP  RH WIND       PRES   REMARKS
GOODLAND       SUNNY     43  25  49 N16G23    30.49F
HILL CITY      SUNNY     44  24  45 NW18G25   30.50F
NORTON         CLEAR     45  21  39 NW10G21   30.48
PHILLIPSBURG   SUNNY     48  27  43 NW17G23   30.49F
SMITH CENTER   SUNNY     45  25  45 NW16G24   30.48F
BELOIT         MOSUNNY   46  25  42 NW18G25   30.47S
HAYS           SUNNY     45  21  39 N16G25    30.49F
RUSSELL        SUNNY     46  25  43 N17G26    30.47F
CONCORDIA      CLOUDY    43  26  51 N20G28    30.46S
SALINA         PTSUNNY   48  26  42 N25G32    30.46F
TOPEKA         CLOUDY    44  29  55 NW23G30   30.41S



USA.gov is the U.S. government's official web portal to all federal, state and local government web resources and services.